#timestamp,LO_Frequency,Hit,StdDev 
1685034015.4,286047001.3,N
1685034035.2,286047001.6,N
1685034055.0,286047001.3,N
1685034055.9,286047001.3,N
1685034075.8,286047004.0,Y
1685034095.6,286047002.1,P
1685034115.5,286047001.6,P
1685034135.3,286047001.9,P
1685034155.1,286047002.3,Y
1685034175.9,286046998.2,P
1685034195.7,286047000.5,N
1685034215.5,286047000.4,N
1685034235.4,286047001.2,N
1685034255.2,286047000.7,N
1685034275.1,286046998.2,N
1685034276.0,286046998.2,N
1685034295.8,286046998.4,N
1685034315.6,286046998.1,N
1685034335.5,286046996.5,N
1685034355.3,286046996.8,N
1685034375.1,286046999.1,N
1685034395.9,286046996.6,N
1685034415.7,286046996.5,N
1685034435.6,286046996.6,N
1685034455.4,286046998.0,N
1685034475.2,286046997.9,N
1685034495.1,286046996.7,N
1685034496.0,286046996.7,N
1685034515.8,286046996.8,N
1685034535.6,286046997.1,N
1685034555.5,286046997.7,N
1685034575.3,286046997.4,N
1685034595.2,286046999.0,N
1685034615.9,286046999.1,N
1685034635.7,286046998.6,N
1685034655.6,286047000.6,N
1685034675.4,286047000.4,N
1685034695.2,286046999.3,N
1685034715.1,286046998.2,N
1685034716.0,286046998.2,N
1685034735.8,286047001.2,N
1685034755.7,286046998.6,N
1685034775.5,286046998.4,N
1685034795.3,286047001.1,N
1685034815.2,286046998.5,N
1685034835.9,286046998.5,N
1685034855.7,286046996.9,N
1685034875.6,286046998.3,N
1685034895.4,286046999.5,N
1685034915.2,286046997.1,N
1685034935.1,286046996.8,N
1685034936.0,286046996.8,N
1685034955.8,286046997.4,N
1685034975.7,286046999.2,N
1685034995.5,286046996.8,N
1685035015.3,286046996.7,N
1685035035.2,286046996.7,N
1685035055.0,286046997.3,N
1685035055.9,286046997.3,N
1685035075.8,286046995.4,Y
1685035095.6,286046997.6,P
1685035115.4,286046997.8,P
1685035135.3,286046997.7,P
1685035155.1,286046994.9,Y
1685035175.8,286046998.8,P
1685035195.7,286046998.8,N
1685035215.5,286046999.6,N
1685035235.4,286047001.2,N
1685035255.2,286047000.4,N
1685035275.0,286047000.1,N
1685035275.9,286047000.1,N
1685035295.8,286047001.2,N
1685035315.6,286047000.7,N
1685035335.4,286047000.7,N
1685035355.3,286047000.3,N
1685035375.1,286047000.1,N
1685035395.9,286047002.7,N
1685035415.7,286047002.2,N
1685035435.5,286047002.0,N
1685035455.4,286047002.7,N
1685035475.2,286047000.5,N
1685035495.0,286047000.5,N
1685035495.9,286047000.5,N
1685035515.8,286046998.5,N
1685035535.6,286046998.1,N
1685035555.5,286047000.5,N
1685035575.3,286047000.6,N
1685035595.1,286047000.1,N
1685035615.9,286047000.4,N
1685035635.7,286046999.9,N
1685035655.5,286047000.8,N
1685035675.5,286047000.3,N
1685035695.3,286047001.1,N
1685035715.1,286046998.5,N
1685035735.9,286047000.9,N
1685035755.7,286047000.6,N
1685035775.6,286047000.3,N
1685035795.4,286047000.0,N
1685035815.2,286046999.8,N
1685035835.1,286047001.0,N
1685035836.0,286047001.0,N
1685035855.8,286046999.1,N
1685035875.6,286046999.0,N
1685035895.5,286046999.2,N
1685035915.3,286046998.1,N
1685035935.2,286046996.9,N
1685035955.9,286046998.4,N
1685035975.7,286047001.0,N
1685035995.6,286047000.5,N
1685036015.4,286047000.6,N
1685036035.2,286046999.9,N
1685036055.1,286047000.8,N
1685036056.0,286047000.8,N
1685036075.8,286046998.6,N
1685036095.7,286046999.2,N
1685036115.5,286046998.8,N
1685036135.3,286046998.3,N
1685036155.2,286047001.2,N
1685036175.0,286046998.5,N
1685036175.9,286046998.5,N
1685036195.8,286047000.6,N
1685036215.6,286047001.2,N
1685036235.4,286047000.0,N
1685036255.3,286047000.7,N
1685036275.1,286047000.3,N
1685036295.9,286047000.2,N
1685036315.7,286047002.6,N
1685036335.5,286046999.7,N
1685036355.4,286046999.8,N
1685036375.2,286047002.5,N
1685036395.0,286047002.2,N
1685036395.9,286047002.2,N
1685036415.8,286047002.4,N
1685036435.6,286046999.7,N
1685036455.5,286047002.7,N
1685036475.3,286046999.7,N
1685036495.1,286047000.1,N
1685036515.9,286047000.4,N
1685036535.7,286047002.6,N
1685036555.5,286047002.6,N
1685036575.4,286047002.1,N
1685036595.2,286047001.9,N
1685036615.0,286047002.1,N
1685036616.0,286047002.1,N
1685036635.8,286046999.7,N
1685036655.6,286047004.0,N
1685036675.5,286047001.4,N
1685036695.3,286047002.0,N
1685036715.1,286047001.9,N
1685036735.9,286047004.4,Y
1685036755.7,286047002.6,P
1685036775.6,286046999.7,N
1685036795.4,286047000.3,N
1685036815.2,286047002.8,N
1685036835.1,286047002.2,N
1685036836.0,286047002.2,N
1685036855.8,286047002.1,N
1685036875.6,286047002.4,N
1685036895.5,286047001.5,N
1685036915.3,286047001.8,N
1685036935.2,286047001.5,N
1685036955.9,286047002.2,N
1685036975.7,286046999.9,N
1685036995.6,286046999.8,N
1685037015.4,286047001.2,N
1685037035.2,286046998.6,N
1685037055.1,286046998.1,N
1685037056.0,286046998.1,N
1685037075.8,286047000.6,N
1685037095.6,286047000.3,N
1685037115.5,286047002.6,N
1685037135.3,286047002.3,N
1685037155.2,286047000.0,N
1685037175.9,286047002.4,N
1685037195.7,286047002.1,N
1685037215.6,286047002.6,N
1685037235.4,286047002.1,N
1685037255.2,286047002.1,N
1685037275.1,286047001.6,N
1685037276.0,286047001.6,N
1685037295.8,286047001.6,N
1685037315.7,286047003.8,N
1685037335.5,286047004.2,Y
1685037355.3,286047002.8,P
1685037375.2,286047002.6,P
1685037395.0,286047002.8,P
1685037395.9,286047002.8,Y
1685037415.7,286046998.9,P
1685037435.6,286046998.7,N
1685037455.4,286046999.3,N
1685037475.3,286046998.8,N
1685037495.1,286047001.2,N
1685037496.0,286047001.2,N
1685037515.8,286046999.4,N
1685037535.7,286046996.6,N
1685037555.5,286046998.8,N
1685037575.3,286046998.9,N
1685037595.2,286046998.9,N
